User: anonymous
Location: Unspecified
(0.0000°N, 0.0000°E)
Time: 20:21:24
(UTC+02:00)
Language:

Timation 2 Rocket - Orbit

View from above orbital plane
View from above orbital plane
View from above satellite
View from above satellite

Ground track
Ground track

The orbit data is extracted from the following two-line orbital elements,

1 04159U 69082AB  14264.79902332  .00000012  00000-0  65249-4 0  7010
2 04159 069.9641 053.6667 0117968 254.0208 104.7864 13.72246724250962
Epoch (UTC): 21 September 2014 19:10:35
Eccentricity: 0.0117968
inclination: 69.9641°
perigee height: 904 km
apogee height: 1078 km
right ascension of ascending node: 53.6667°
argument of perigee: 254.0208°
revolutions per day: 13.72246724
mean anomaly at epoch: 104.7864°
orbit number at epoch: 25096

The dashed part of the orbit path shows where the satellite is in the earth's shadow,  

DLR